Location: Ertinghausen
(51.6624°N, 9.7874°E)
Time: 20:48:56
(UTC+00:00)

Cosmos 2221 Rocket - Pass Details

Date: 14 August 2024
Orbit: 617 x 644 km, 82.5° (Epoch: 17 September)

Event Time Altitude Azimuth Distance (km) Brightness Sun altitude
Rises 00:58:18 0° 2° (N) 2,972 8.3 -21.1°
Reaches altitude 10° 01:01:49 10° 31° (NNE) 2,056 7.4 -20.8°
Maximum altitude 01:03:56 13° 58° (ENE) 1,857 6.8 -20.7°
Drops below altitude 10° 01:06:03 10° 86° (E) 2,047 6.6 -20.6°
Sets 01:09:31 0° 115° (ESE) 2,947 7.1 -20.3°
